Flag for U.S.A. Weather past 2 weeks in Jersey City, New Jersey, U.S.A.

36 °F


Feels Like: 32 °F
Forecast: 35 / 49 °F
Wind: 5 mph from Northeast

Location: Newark International Airport

Current Time: Nov 25, 2015 at 3:29:55 AM

Latest Report: Nov 25, 2015 at 2:51 AM

Visibility: 10 mi

Pressure: 30.59 "Hg

Humidity: 64%

Dew point: 25 °F

Location of Jersey CityLocation

Historic Weather in Jersey City — Graph


Jersey City temperature yesterday

Maximum temperature yesterday: 48 °F (at 1:51 PM)
Minimum temperature yesterday: 27 °F (at 1:51 AM)
Average temperature yesterday: 39 °F

Past Weeks' High & Low Weather Summary

High70 °F (Nov 16, 2:51 PM)100% (Nov 19, 9:51 PM)30.57 "Hg (Nov 19, 9:51 PM)
Low27 °F (Nov 24, 1:51 AM)20% (Nov 20, 2:51 PM)29.53 "Hg (Nov 12, 7:51 PM)
Average51 °F60%30.10 "Hg
* Reported Nov 10 1:51 AM — Nov 25 1:51 AM, Jersey City, Weather by CustomWeather, © 2015

Note: Actual official high and low records may vary slightly from our data, if they occured in-between our weather recording intervals... More about our weather records


Jersey City weather history for previous 24 hours

Time TempWeatherWind HumidityBarometerVisibility
1:51 AM
Wed, Nov 25
38 °FClear.5 mph60%30.57 "Hg10 mi
12:51 AM39 °FClear.3 mph55%30.55 "Hg10 mi
11:51 PM
Tue, Nov 24
41 °FPassing clouds.7 mph51%30.53 "Hg10 mi
10:51 PM41 °FPassing clouds.6 mph51%30.52 "Hg10 mi
9:51 PM43 °FPassing clouds.9 mph47%30.50 "Hg10 mi
8:51 PM44 °FPassing clouds.8 mph45%30.48 "Hg10 mi
7:51 PM45 °FPassing clouds.8 mph42%30.47 "Hg10 mi
6:51 PM45 °FPassing clouds.8 mph44%30.44 "Hg10 mi
5:51 PM45 °FPassing clouds.8 mph45%30.42 "Hg10 mi
4:51 PM45 °FPassing clouds.8 mph44%30.39 "Hg10 mi
3:51 PM47 °FScattered clouds.10 mph41%30.35 "Hg10 mi
2:51 PM48 °FPassing clouds.10 mph37%30.33 "Hg10 mi
1:51 PM48 °FScattered clouds.13 mph36%30.33 "Hg10 mi
12:51 PM47 °FScattered clouds.10 mph34%30.33 "Hg10 mi
11:51 AM44 °FScattered clouds.8 mph37%30.34 "Hg10 mi
10:51 AM41 °FPartly sunny.No wind43%30.36 "Hg10 mi
9:51 AM38 °FOvercast.5 mph43%30.37 "Hg10 mi
8:51 AM36 °FPartly sunny.5 mph48%30.36 "Hg10 mi
7:51 AM33 °FPartly sunny.5 mph56%30.34 "Hg10 mi
6:51 AM32 °FPassing clouds.5 mph59%30.33 "Hg10 mi
5:51 AM30 °FPassing clouds.3 mph61%30.31 "Hg10 mi
4:51 AM31 °FPassing clouds.No wind61%30.28 "Hg10 mi
3:51 AM28 °FPassing clouds.3 mph66%30.28 "Hg10 mi
Weather by CustomWeather, © 2015

See weather overviewHow to use our weather pages